| time (UTC) | temp F | wind direction | speed MPH | gust MPH | rain 1hr in | rain 24hr in | rain mn in | humidity % | barometer mb |
| 20260506013804 | 70 | 110 | 0.0 | 3.0 | 0.00 | 0.00 | 0.00 | 47 | 1007.3 |
| 20260506013303 | 70 | 176 | 2.0 | 3.0 | 0.00 | 0.00 | 0.00 | 46 | 1007.2 |
| 20260506012803 | 71 | 228 | 0.0 | 3.0 | 0.00 | 0.00 | 0.00 | 46 | 1007.2 |
| 20260506012307 | 71 | 164 | 1.0 | 3.0 | 0.00 | 0.00 | 0.00 | 45 | 1007.1 |
| 20260506011803 | 71 | 156 | 1.0 | 2.0 | 0.00 | 0.00 | 0.00 | 45 | 1007.0 |
| 20260506011303 | 71 | 144 | 0.0 | 9.0 | 0.00 | 0.00 | 0.00 | 44 | 1006.9 |
| 20260506010304 | 72 | 157 | 2.0 | 6.0 | 0.00 | 0.00 | 0.00 | 45 | 1006.7 |
| 20260506005803 | 72 | 158 | 1.0 | 3.0 | 0.00 | 0.00 | 0.00 | 43 | 1006.6 |
| 20260506005305 | 72 | 147 | 1.0 | 3.0 | 0.00 | 0.00 | 0.00 | 44 | 1006.6 |
| 20260506004803 | 72 | 122 | 1.0 | 3.0 | 0.00 | 0.00 | 0.00 | 43 | 1006.5 |
| 20260506004303 | 72 | 240 | 0.0 | 5.0 | 0.00 | 0.00 | 0.00 | 44 | 1006.5 |
| 20260506003304 | 72 | 175 | 2.0 | 7.0 | 0.00 | 0.00 | 0.00 | 42 | 1006.3 |
| 20260506002803 | 73 | 135 | 0.0 | 7.0 | 0.00 | 0.00 | 0.00 | 41 | 1006.2 |
| 20260506002305 | 73 | 172 | 1.0 | 3.0 | 0.00 | 0.00 | 0.00 | 41 | 1006.1 |
| 20260506001803 | 73 | 143 | 2.0 | 5.0 | 0.00 | 0.00 | 0.00 | 40 | 1006.1 |
| 20260506001303 | 73 | 148 | 2.0 | 5.0 | 0.00 | 0.00 | 0.00 | 41 | 1006.0 |
| 20260506000803 | 73 | 190 | 3.0 | 5.0 | 0.00 | 0.00 | 0.00 | 40 | 1006.0 |
| 20260505235803 | 74 | 163 | 2.0 | 8.0 | 0.00 | 0.00 | 0.00 | 40 | 1006.0 |
| 20260505235305 | 74 | 217 | 3.0 | 12.0 | 0.00 | 0.00 | 0.00 | 39 | 1006.0 |
| 20260505234804 | 74 | 151 | 4.0 | 12.0 | 0.00 | 0.00 | 0.00 | 40 | 1006.0 |
| 20260505234303 | 74 | 182 | 2.0 | 12.0 | 0.00 | 0.00 | 0.00 | 39 | 1006.0 |
| 20260505233303 | 74 | 163 | 3.0 | 12.0 | 0.00 | 0.00 | 0.00 | 39 | 1006.0 |
| 20260505232804 | 74 | 143 | 4.0 | 8.0 | 0.00 | 0.00 | 0.00 | 39 | 1006.0 |
| 20260505232305 | 74 | 185 | 2.0 | 8.0 | 0.00 | 0.00 | 0.00 | 40 | 1006.0 |
| 20260505231803 | 74 | 135 | 3.0 | 8.0 | 0.00 | 0.00 | 0.00 | 39 | 1005.9 |
| 20260505231303 | 74 | 125 | 3.0 | 9.0 | 0.00 | 0.00 | 0.00 | 40 | 1006.0 |
| 20260505230803 | 74 | 158 | 3.0 | 12.0 | 0.00 | 0.00 | 0.00 | 39 | 1006.0 |
| 20260505230303 | 74 | 184 | 4.0 | 12.0 | 0.00 | 0.00 | 0.00 | 39 | 1006.0 |
| 20260505225803 | 74 | 172 | 3.0 | 12.0 | 0.00 | 0.00 | 0.00 | 40 | 1006.0 |
| 20260505225305 | 74 | 152 | 3.0 | 9.0 | 0.00 | 0.00 | 0.00 | 40 | 1006.0 |
| 20260505224804 | 74 | 206 | 2.0 | 9.0 | 0.00 | 0.00 | 0.00 | 40 | 1006.0 |
| 20260505224304 | 74 | 175 | 2.0 | 9.0 | 0.00 | 0.00 | 0.00 | 40 | 1006.0 |
| 20260505222803 | 74 | 133 | 2.0 | 18.0 | 0.00 | 0.00 | 0.00 | 40 | 1005.9 |
| 20260505221804 | 74 | 177 | 3.0 | 16.0 | 0.00 | 0.00 | 0.00 | 41 | 1005.9 |
| 20260505221303 | 74 | 167 | 5.0 | 16.0 | 0.00 | 0.00 | 0.00 | 40 | 1005.9 |
| 20260505220804 | 74 | 164 | 6.0 | 16.0 | 0.00 | 0.00 | 0.00 | 40 | 1005.8 |
| 20260505220303 | 74 | 159 | 5.0 | 16.0 | 0.00 | 0.00 | 0.00 | 41 | 1005.9 |
| 20260505215803 | 74 | 211 | 2.0 | 12.0 | 0.00 | 0.00 | 0.00 | 40 | 1005.8 |
| 20260505215305 | 74 | 124 | 5.0 | 12.0 | 0.00 | 0.00 | 0.00 | 40 | 1005.7 |
| 20260505214804 | 74 | 173 | 3.0 | 12.0 | 0.00 | 0.00 | 0.00 | 40 | 1005.8 |
| 20260505214304 | 74 | 180 | 3.0 | 12.0 | 0.00 | 0.00 | 0.00 | 40 | 1005.8 |
| 20260505213303 | 75 | 169 | 3.0 | 12.0 | 0.00 | 0.00 | 0.00 | 39 | 1005.8 |
| 20260505212803 | 75 | 134 | 5.0 | 20.0 | 0.00 | 0.00 | 0.00 | 39 | 1005.8 |
| 20260505212305 | 75 | 158 | 5.0 | 20.0 | 0.00 | 0.00 | 0.00 | 39 | 1005.7 |
| 20260505211803 | 75 | 155 | 6.0 | 14.0 | 0.00 | 0.00 | 0.00 | 38 | 1005.6 |
| 20260505211303 | 75 | 186 | 6.0 | 14.0 | 0.00 | 0.00 | 0.00 | 38 | 1005.6 |
| 20260505205305 | 75 | 196 | 3.0 | 17.0 | 0.00 | 0.00 | 0.00 | 39 | 1005.5 |
| 20260505204804 | 76 | 160 | 5.0 | 17.0 | 0.00 | 0.00 | 0.00 | 38 | 1005.4 |
| 20260505204304 | 76 | 190 | 8.0 | 14.0 | 0.00 | 0.00 | 0.00 | 38 | 1005.4 |
| 20260505203803 | 76 | 215 | 3.0 | 18.0 | 0.00 | 0.00 | 0.00 | 38 | 1005.4 |
| 20260505203304 | 76 | 131 | 4.0 | 21.0 | 0.00 | 0.00 | 0.00 | 37 | 1005.3 |
| 20260505202804 | 77 | 181 | 6.0 | 21.0 | 0.00 | 0.00 | 0.00 | 38 | 1005.4 |
| 20260505201803 | 76 | 163 | 4.0 | 26.0 | 0.00 | 0.00 | 0.00 | 38 | 1005.3 |
| 20260505201303 | 77 | 165 | 6.0 | 26.0 | 0.00 | 0.00 | 0.00 | 37 | 1005.3 |
| 20260505195803 | 78 | 137 | 7.0 | 16.0 | 0.00 | 0.00 | 0.00 | 36 | 1005.4 |
| 20260505195305 | 78 | 198 | 6.0 | 16.0 | 0.00 | 0.00 | 0.00 | 36 | 1005.4 |
| 20260505194803 | 78 | 214 | 4.0 | 14.0 | 0.00 | 0.00 | 0.00 | 38 | 1005.3 |
| 20260505193803 | 77 | 162 | 8.0 | 16.0 | 0.00 | 0.00 | 0.00 | 38 | 1005.4 |
| 20260505193304 | 77 | 182 | 7.0 | 16.0 | 0.00 | 0.00 | 0.00 | 38 | 1005.4 |
| 20260505192803 | 77 | 270 | 3.0 | 25.0 | 0.00 | 0.00 | 0.00 | 39 | 1005.3 |
| 20260505192305 | 78 | 166 | 6.0 | 25.0 | 0.00 | 0.00 | 0.00 | 39 | 1005.5 |
| 20260505191803 | 77 | 152 | 9.0 | 25.0 | 0.00 | 0.00 | 0.00 | 39 | 1005.5 |
| 20260505191303 | 77 | 146 | 5.0 | 16.0 | 0.00 | 0.00 | 0.00 | 37 | 1005.7 |
| 20260505190803 | 77 | 163 | 5.0 | 16.0 | 0.00 | 0.00 | 0.00 | 36 | 1005.8 |
| 20260505190304 | 77 | 182 | 6.0 | 18.0 | 0.00 | 0.00 | 0.00 | 35 | 1005.9 |
| 20260505185804 | 78 | 167 | 5.0 | 18.0 | 0.00 | 0.00 | 0.00 | 36 | 1005.9 |
| 20260505185305 | 77 | 228 | 5.0 | 18.0 | 0.00 | 0.00 | 0.00 | 37 | 1005.9 |
| 20260505184803 | 78 | 197 | 5.0 | 21.0 | 0.00 | 0.00 | 0.00 | 39 | 1005.9 |
| 20260505183803 | 76 | 138 | 3.0 | 16.0 | 0.00 | 0.00 | 0.00 | 41 | 1006.1 |
| 20260505183304 | 76 | 210 | 7.0 | 16.0 | 0.00 | 0.00 | 0.00 | 38 | 1006.1 |
| 20260505182803 | 76 | 122 | 6.0 | 16.0 | 0.00 | 0.00 | 0.00 | 39 | 1006.0 |
| 20260505182306 | 77 | 189 | 9.0 | 16.0 | 0.00 | 0.00 | 0.00 | 38 | 1006.2 |
| 20260505181803 | 77 | 132 | 6.0 | 16.0 | 0.00 | 0.00 | 0.00 | 38 | 1006.2 |
| 20260505181304 | 76 | 141 | 6.0 | 16.0 | 0.00 | 0.00 | 0.00 | 41 | 1006.3 |
| 20260505180803 | 76 | 207 | 5.0 | 16.0 | 0.00 | 0.00 | 0.00 | 41 | 1006.4 |
| 20260505180304 | 76 | 133 | 6.0 | 14.0 | 0.00 | 0.00 | 0.00 | 40 | 1006.3 |
| 20260505175305 | 76 | 169 | 6.0 | 14.0 | 0.00 | 0.00 | 0.00 | 41 | 1006.4 |
| 20260505174804 | 76 | 152 | 6.0 | 14.0 | 0.00 | 0.00 | 0.00 | 41 | 1006.6 |
| 20260505173303 | 76 | 350 | 5.0 | 14.0 | 0.00 | 0.00 | 0.00 | 39 | 1006.5 |
| 20260505172802 | 76 | 185 | 4.0 | 13.0 | 0.00 | 0.00 | 0.00 | 40 | 1006.5 |
| 20260505172305 | 76 | 193 | 8.0 | 13.0 | 0.00 | 0.00 | 0.00 | 39 | 1006.4 |
| 20260505170802 | 76 | 197 | 5.0 | 20.0 | 0.00 | 0.00 | 0.00 | 40 | 1006.9 |
| 20260505170302 | 76 | 242 | 4.0 | 17.0 | 0.00 | 0.00 | 0.00 | 42 | 1006.8 |
| 20260505165305 | 75 | 198 | 5.0 | 25.0 | 0.00 | 0.00 | 0.00 | 45 | 1007.0 |
| 20260505164802 | 75 | 207 | 3.0 | 15.0 | 0.00 | 0.00 | 0.00 | 45 | 1006.9 |
| 20260505163303 | 74 | 176 | 6.0 | 12.0 | 0.00 | 0.00 | 0.00 | 44 | 1007.2 |
| 20260505162802 | 75 | 217 | 6.0 | 12.0 | 0.00 | 0.00 | 0.00 | 44 | 1007.3 |
| 20260505162305 | 75 | 174 | 5.0 | 10.0 | 0.00 | 0.00 | 0.00 | 46 | 1007.4 |
| 20260505161802 | 75 | 261 | 3.0 | 17.0 | 0.00 | 0.00 | 0.00 | 46 | 1007.4 |
| 20260505161302 | 74 | 147 | 6.0 | 17.0 | 0.00 | 0.00 | 0.00 | 46 | 1007.4 |
| 20260505160803 | 75 | 219 | 6.0 | 16.0 | 0.00 | 0.00 | 0.00 | 46 | 1007.5 |
| 20260505160303 | 74 | 285 | 3.0 | 15.0 | 0.00 | 0.00 | 0.00 | 47 | 1007.6 |
| 20260505153303 | 73 | 227 | 5.0 | 20.0 | 0.00 | 0.00 | 0.00 | 48 | 1008.1 |
| 20260505152802 | 73 | 220 | 3.0 | 10.0 | 0.00 | 0.00 | 0.00 | 50 | 1008.0 |
| 20260505152305 | 72 | 190 | 3.0 | 12.0 | 0.00 | 0.00 | 0.00 | 52 | 1008.0 |
| 20260505151802 | 72 | 192 | 3.0 | 17.0 | 0.00 | 0.00 | 0.00 | 53 | 1008.0 |
| 20260505151303 | 72 | 231 | 6.0 | 17.0 | 0.00 | 0.00 | 0.00 | 50 | 1008.0 |
| 20260505150302 | 72 | 220 | 7.0 | 13.0 | 0.00 | 0.00 | 0.00 | 50 | 1008.1 |
| 20260505140302 | 70 | 266 | 5.0 | 9.0 | 0.00 | 0.00 | 0.00 | 52 | 1008.3 |
| 20260505130303 | 65 | 123 | 1.0 | 3.0 | 0.00 | 0.00 | 0.00 | 62 | 1008.8 |
| 20260505124302 | 63 | 7 | 0.0 | 2.0 | 0.00 | 0.00 | 0.00 | 65 | 1008.8 |
| 20260505123803 | 62 | 126 | 0.0 | 3.0 | 0.00 | 0.00 | 0.00 | 66 | 1008.8 |
| 20260505123302 | 62 | 156 | 1.0 | 3.0 | 0.00 | 0.00 | 0.00 | 67 | 1008.9 |
| 20260505122305 | 61 | 103 | 1.0 | 3.0 | 0.00 | 0.00 | 0.00 | 68 | 1009.1 |
| 20260505121803 | 60 | 110 | 1.0 | 3.0 | 0.00 | 0.00 | 0.00 | 70 | 1009.1 |
| 20260505120803 | 59 | 132 | 1.0 | 5.0 | 0.00 | 0.00 | 0.00 | 71 | 1009.2 |
| 20260505120303 | 58 | 183 | 1.0 | 3.0 | 0.00 | 0.00 | 0.00 | 71 | 1009.0 |
| 20260505115803 | 57 | 49 | 1.0 | 3.0 | 0.00 | 0.00 | 0.00 | 75 | 1008.9 |
| 20260505114303 | 53 | 313 | 0.0 | 0.0 | 0.00 | 0.00 | 0.00 | 84 | 1009.1 |
| 20260505113803 | 51 | 313 | 0.0 | 0.0 | 0.00 | 0.00 | 0.00 | 85 | 1009.1 |
| 20260505112304 | 49 | 313 | 0.0 | 0.0 | 0.00 | 0.00 | 0.00 | 85 | 1008.9 |
| 20260505111802 | 49 | 313 | 0.0 | 0.0 | 0.00 | 0.00 | 0.00 | 85 | 1008.9 |
| 20260505111302 | 49 | 313 | 0.0 | 0.0 | 0.00 | 0.00 | 0.00 | 84 | 1008.9 |
| 20260505110302 | 48 | 313 | 0.0 | 1.0 | 0.00 | 0.00 | 0.00 | 84 | 1009.0 |
| 20260505101803 | 48 | 230 | 0.0 | 0.0 | 0.00 | 0.00 | 0.00 | 83 | 1008.6 |
| 20260505100803 | 48 | 230 | 0.0 | 0.0 | 0.00 | 0.00 | 0.00 | 83 | 1008.5 |
| 20260505100303 | 48 | 230 | 0.0 | 0.0 | 0.00 | 0.00 | 0.00 | 83 | 1008.5 |
| 20260505095803 | 48 | 230 | 0.0 | 0.0 | 0.00 | 0.00 | 0.00 | 83 | 1008.5 |
| 20260505095304 | 48 | 230 | 0.0 | 0.0 | 0.00 | 0.00 | 0.00 | 83 | 1008.4 |
| 20260505094803 | 48 | 230 | 0.0 | 0.0 | 0.00 | 0.00 | 0.00 | 83 | 1008.4 |
| 20260505094303 | 48 | 229 | 0.0 | 0.0 | 0.00 | 0.00 | 0.00 | 83 | 1008.3 |
| 20260505093802 | 49 | 188 | 0.0 | 1.0 | 0.00 | 0.00 | 0.00 | 83 | 1008.3 |
| 20260505093303 | 49 | 188 | 0.0 | 2.0 | 0.00 | 0.00 | 0.00 | 83 | 1008.3 |
| 20260505092305 | 49 | 160 | 0.0 | 2.0 | 0.00 | 0.00 | 0.00 | 83 | 1008.2 |
| 20260505091304 | 49 | 60 | 0.0 | 2.0 | 0.00 | 0.00 | 0.00 | 82 | 1008.3 |
| 20260505090803 | 49 | 63 | 0.0 | 2.0 | 0.00 | 0.00 | 0.00 | 81 | 1008.3 |
| 20260505090303 | 49 | 331 | 1.0 | 2.0 | 0.00 | 0.00 | 0.00 | 82 | 1008.4 |
| 20260505085304 | 49 | 317 | 0.0 | 0.0 | 0.00 | 0.00 | 0.00 | 81 | 1008.4 |
| 20260505084803 | 49 | 317 | 0.0 | 1.0 | 0.00 | 0.00 | 0.00 | 80 | 1008.4 |
| 20260505083803 | 49 | 317 | 1.0 | 1.0 | 0.00 | 0.00 | 0.00 | 80 | 1008.1 |
| 20260505083303 | 48 | 317 | 1.0 | 1.0 | 0.00 | 0.00 | 0.00 | 80 | 1008.3 |
| 20260505082803 | 48 | 317 | 0.0 | 1.0 | 0.00 | 0.00 | 0.00 | 80 | 1008.4 |
| 20260505081803 | 48 | 317 | 0.0 | 0.0 | 0.00 | 0.00 | 0.00 | 80 | 1008.5 |
| 20260505081303 | 48 | 317 | 0.0 | 0.0 | 0.00 | 0.00 | 0.00 | 79 | 1008.5 |
| 20260505080303 | 48 | 317 | 0.0 | 0.0 | 0.00 | 0.00 | 0.00 | 79 | 1008.5 |
| 20260505075304 | 48 | 317 | 0.0 | 2.0 | 0.00 | 0.00 | 0.00 | 79 | 1008.3 |
| 20260505074803 | 48 | 317 | 0.0 | 0.0 | 0.00 | 0.00 | 0.00 | 78 | 1008.1 |
| 20260505074303 | 48 | 317 | 0.0 | 2.0 | 0.00 | 0.00 | 0.00 | 78 | 1008.2 |
| 20260505073803 | 49 | 317 | 0.0 | 2.0 | 0.00 | 0.00 | 0.00 | 78 | 1008.2 |
| 20260505072803 | 49 | 317 | 0.0 | 0.0 | 0.00 | 0.00 | 0.00 | 78 | 1008.2 |
| 20260505072305 | 49 | 317 | 0.0 | 2.0 | 0.00 | 0.00 | 0.00 | 78 | 1008.2 |
| 20260505071803 | 49 | 317 | 0.0 | 2.0 | 0.00 | 0.00 | 0.00 | 78 | 1008.3 |
| 20260505071303 | 50 | 317 | 0.0 | 0.0 | 0.00 | 0.00 | 0.00 | 78 | 1008.3 |
| 20260505070803 | 50 | 317 | 0.0 | 0.0 | 0.00 | 0.00 | 0.00 | 78 | 1008.3 |
| 20260505064803 | 50 | 317 | 0.0 | 0.0 | 0.00 | 0.00 | 0.00 | 75 | 1008.4 |
| 20260505062803 | 51 | 317 | 0.0 | 1.0 | 0.00 | 0.00 | 0.00 | 76 | 1008.7 |
| 20260505061803 | 51 | 317 | 0.0 | 1.0 | 0.00 | 0.00 | 0.00 | 75 | 1008.7 |
| 20260505061303 | 51 | 317 | 0.0 | 1.0 | 0.00 | 0.00 | 0.00 | 75 | 1008.8 |
| 20260505060803 | 51 | 328 | 0.0 | 1.0 | 0.00 | 0.00 | 0.00 | 74 | 1008.8 |
| 20260505060303 | 51 | 311 | 0.0 | 1.0 | 0.00 | 0.00 | 0.00 | 73 | 1008.9 |
| 20260505055803 | 51 | 311 | 0.0 | 1.0 | 0.00 | 0.00 | 0.00 | 73 | 1008.9 |
| 20260505055304 | 51 | 311 | 0.0 | 2.0 | 0.00 | 0.00 | 0.00 | 75 | 1008.8 |
| 20260505054803 | 51 | 332 | 0.0 | 2.0 | 0.00 | 0.00 | 0.00 | 76 | 1008.7 |
| 20260505054303 | 51 | 146 | 0.0 | 2.0 | 0.00 | 0.00 | 0.00 | 74 | 1008.8 |
| 20260505053803 | 50 | 101 | 0.0 | 2.0 | 0.00 | 0.00 | 0.00 | 73 | 1008.8 |
| 20260505053303 | 50 | 256 | 0.0 | 1.0 | 0.00 | 0.00 | 0.00 | 74 | 1008.8 |
| 20260505052803 | 50 | 256 | 0.0 | 1.0 | 0.00 | 0.00 | 0.00 | 73 | 1008.9 |
| 20260505052304 | 50 | 256 | 0.0 | 2.0 | 0.00 | 0.00 | 0.00 | 73 | 1008.8 |
| 20260505051803 | 50 | 266 | 0.0 | 2.0 | 0.00 | 0.00 | 0.00 | 74 | 1008.7 |
| 20260505050803 | 50 | 220 | 0.0 | 2.0 | 0.00 | 0.00 | 0.00 | 75 | 1008.7 |
| 20260505050303 | 50 | 341 | 0.0 | 2.0 | 0.00 | 0.00 | 0.00 | 74 | 1008.7 |
| 20260505041303 | 52 | 340 | 1.0 | 1.0 | 0.00 | 0.00 | 0.00 | 70 | 1008.4 |
| 20260505040303 | 53 | 340 | 0.0 | 2.0 | 0.00 | 0.00 | 0.00 | 70 | 1008.4 |
| 20260505035803 | 53 | 340 | 0.0 | 2.0 | 0.00 | 0.00 | 0.00 | 69 | 1008.4 |
| 20260505034803 | 54 | 340 | 1.0 | 2.0 | 0.00 | 0.00 | 0.00 | 67 | 1008.4 |
| 20260505034303 | 55 | 346 | 1.0 | 2.0 | 0.00 | 0.00 | 0.00 | 67 | 1008.4 |
| 20260505033803 | 55 | 329 | 0.0 | 2.0 | 0.00 | 0.00 | 0.00 | 66 | 1008.4 |
| 20260505033303 | 56 | 342 | 0.0 | 2.0 | 0.00 | 0.00 | 0.00 | 64 | 1008.3 |
| 20260505032803 | 57 | 335 | 1.0 | 2.0 | 0.00 | 0.00 | 0.00 | 63 | 1008.3 |
| 20260505032304 | 57 | 337 | 1.0 | 2.0 | 0.00 | 0.00 | 0.00 | 62 | 1008.2 |
| 20260505031803 | 57 | 334 | 1.0 | 2.0 | 0.00 | 0.00 | 0.00 | 61 | 1008.4 |
| 20260505031303 | 58 | 355 | 0.0 | 2.0 | 0.00 | 0.00 | 0.00 | 60 | 1008.5 |
| 20260505030303 | 58 | 305 | 0.0 | 2.0 | 0.00 | 0.00 | 0.00 | 59 | 1008.5 |
| 20260505025803 | 59 | 222 | 0.0 | 2.0 | 0.00 | 0.00 | 0.00 | 58 | 1008.6 |
| 20260505024803 | 59 | 286 | 0.0 | 2.0 | 0.00 | 0.00 | 0.00 | 58 | 1008.6 |
| 20260505023803 | 59 | 158 | 1.0 | 2.0 | 0.00 | 0.00 | 0.00 | 55 | 1008.7 |
| 20260505023304 | 59 | 109 | 1.0 | 3.0 | 0.00 | 0.00 | 0.00 | 54 | 1008.8 |
| 20260505022803 | 60 | 189 | 0.0 | 3.0 | 0.00 | 0.00 | 0.00 | 54 | 1008.8 |
| 20260505022304 | 60 | 226 | 0.0 | 2.0 | 0.00 | 0.00 | 0.00 | 54 | 1008.8 |
| 20260505021803 | 60 | 304 | 1.0 | 2.0 | 0.00 | 0.00 | 0.00 | 54 | 1008.8 |
| 20260505021304 | 60 | 215 | 0.0 | 3.0 | 0.00 | 0.00 | 0.00 | 54 | 1008.8 |
| 20260505020804 | 60 | 223 | 0.0 | 3.0 | 0.00 | 0.00 | 0.00 | 53 | 1008.8 |
| 20260505020303 | 60 | 172 | 1.0 | 3.0 | 0.00 | 0.00 | 0.00 | 53 | 1008.8 |
| 20260505015803 | 61 | 194 | 0.0 | 5.0 | 0.00 | 0.00 | 0.00 | 53 | 1008.8 |
| 20260505015303 | 61 | 197 | 1.0 | 6.0 | 0.00 | 0.00 | 0.00 | 53 | 1008.7 |
| 20260505014803 | 61 | 120 | 2.0 | 6.0 | 0.00 | 0.00 | 0.00 | 52 | 1008.7 |
| 20260505014304 | 61 | 138 | 1.0 | 3.0 | 0.00 | 0.00 | 0.00 | 51 | 1008.6 |